Time,TemperatureF,DewpointF,PressureIn,WindDirection,WindDirectionDegrees,WindSpeedMPH,WindSpeedGustMPH,Humidity,HourlyPrecipIn,Conditions,Clouds,dailyrainin,SolarRadiationWatts/m^2,SoftwareType,DateUTC
2013-09-12 00:05:00,67.0,67.0,30.52,East,91,1.0,4.0,99,0.00,,,0.00,0.000000,,2013-09-12 04:05:00,
2013-09-12 00:44:00,67.0,67.0,30.50,NE,46,1.0,4.0,100,0.00,,,0.00,0.000000,,2013-09-12 04:44:00,
2013-09-12 00:54:00,67.0,67.0,30.50,NE,46,1.0,4.0,100,0.00,,,0.00,0.000000,,2013-09-12 04:54:00,
2013-09-12 01:03:00,67.0,67.0,30.50,NE,46,1.0,4.0,100,0.00,,,0.00,0.000000,,2013-09-12 05:03:00,
2013-09-12 01:43:00,68.0,68.0,30.48,NE,40,1.0,3.0,100,0.00,,,0.00,0.000000,,2013-09-12 05:43:00,
2013-09-12 01:53:00,68.0,68.0,30.48,NE,40,1.0,3.0,100,0.00,,,0.00,0.000000,,2013-09-12 05:53:00,
2013-09-12 02:01:00,68.0,68.0,30.48,NE,40,1.0,3.0,100,0.00,,,0.00,0.000000,,2013-09-12 06:01:00,
2013-09-12 02:42:00,65.0,65.0,30.47,East,79,1.0,2.0,100,0.00,,,0.00,0.000000,,2013-09-12 06:42:00,
2013-09-12 02:52:00,65.0,65.0,30.47,East,79,1.0,2.0,100,0.00,,,0.00,0.000000,,2013-09-12 06:52:00,
2013-09-12 03:02:00,65.0,65.0,30.47,East,79,1.0,2.0,100,0.00,,,0.00,0.000000,,2013-09-12 07:02:00,
2013-09-12 03:44:00,65.0,65.0,30.47,NNW,332,1.0,3.0,100,0.00,,,0.00,0.000000,,2013-09-12 07:44:00,
2013-09-12 03:53:00,65.0,65.0,30.47,NNW,332,1.0,3.0,100,0.00,,,0.00,0.000000,,2013-09-12 07:53:00,
2013-09-12 04:02:00,65.0,65.0,30.47,NNW,332,1.0,3.0,100,0.00,,,0.00,0.000000,,2013-09-12 08:02:00,
2013-09-12 04:42:00,67.0,67.0,30.46,NW,305,1.0,2.0,100,0.00,,,0.00,0.000000,,2013-09-12 08:42:00,
2013-09-12 04:52:00,67.0,67.0,30.46,NW,305,1.0,2.0,100,0.00,,,0.00,0.000000,,2013-09-12 08:52:00,
2013-09-12 05:02:00,67.0,67.0,30.46,NW,305,1.0,2.0,100,0.00,,,0.00,0.000000,,2013-09-12 09:02:00,
2013-09-12 05:43:00,65.0,65.0,30.46,ESE,103,2.0,3.0,100,0.00,,,0.00,0.000000,,2013-09-12 09:43:00,
2013-09-12 05:53:00,65.0,65.0,30.46,ESE,103,2.0,3.0,100,0.00,,,0.00,0.000000,,2013-09-12 09:53:00,
2013-09-12 06:03:00,65.0,65.0,30.46,ESE,103,2.0,3.0,100,0.00,,,0.00,0.000000,,2013-09-12 10:03:00,
2013-09-12 06:43:00,65.0,65.0,30.46,WNW,297,1.0,3.0,100,0.00,,,0.00,0.000000,,2013-09-12 10:43:00,
2013-09-12 06:53:00,65.0,65.0,30.46,WNW,297,1.0,3.0,100,0.00,,,0.00,0.000000,,2013-09-12 10:53:00,
2013-09-12 07:03:00,65.0,65.0,30.46,WNW,297,1.0,3.0,100,0.00,,,0.00,0.000000,,2013-09-12 11:03:00,
2013-09-12 07:42:00,66.0,66.0,30.46,SW,219,1.0,2.0,100,0.00,,,0.00,0.000000,,2013-09-12 11:42:00,
2013-09-12 07:52:00,66.0,66.0,30.46,SW,219,1.0,2.0,100,0.00,,,0.00,0.000000,,2013-09-12 11:52:00,
2013-09-12 08:01:00,66.0,66.0,30.46,SW,219,1.0,2.0,100,0.00,,,0.00,0.000000,,2013-09-12 12:01:00,
2013-09-12 08:42:00,67.0,67.0,30.47,North,353,1.0,2.0,100,0.00,,,0.00,10.000000,,2013-09-12 12:42:00,
2013-09-12 08:52:00,67.0,67.0,30.47,North,353,1.0,2.0,100,0.00,,,0.00,10.000000,,2013-09-12 12:52:00,
2013-09-12 09:02:00,67.0,67.0,30.47,North,353,1.0,2.0,100,0.00,,,0.00,10.000000,,2013-09-12 13:02:00,
2013-09-12 09:42:00,66.0,66.0,30.46,WSW,239,1.0,2.0,100,0.01,,,0.01,48.000000,,2013-09-12 13:42:00,
2013-09-12 09:52:00,66.0,66.0,30.46,WSW,239,1.0,2.0,100,0.01,,,0.01,48.000000,,2013-09-12 13:52:00,
2013-09-12 10:02:00,66.0,66.0,30.46,WSW,239,1.0,2.0,100,0.01,,,0.01,48.000000,,2013-09-12 14:02:00,
2013-09-12 10:42:00,70.0,70.0,30.45,SSE,152,1.0,3.0,100,0.00,,,0.01,140.000000,,2013-09-12 14:42:00,
2013-09-12 10:52:00,70.0,70.0,30.45,SSE,152,1.0,3.0,100,0.00,,,0.01,140.000000,,2013-09-12 14:52:00,
2013-09-12 11:02:00,70.0,70.0,30.45,SSE,152,1.0,3.0,100,0.00,,,0.01,140.000000,,2013-09-12 15:02:00,
2013-09-12 11:54:00,81.0,71.0,30.43,NNE,27,1.0,5.0,72,0.00,,,0.01,536.000000,,2013-09-12 15:54:00,
2013-09-12 12:03:00,81.0,71.0,30.43,NNE,27,1.0,5.0,72,0.00,,,0.01,536.000000,,2013-09-12 16:03:00,
2013-09-12 13:43:00,74.0,66.0,30.41,NW,306,6.0,17.0,75,-99.99,,,0.01,609.000000,,2013-09-12 17:43:00,
2013-09-12 13:54:00,74.0,66.0,30.41,NW,306,6.0,17.0,75,-99.99,,,0.01,609.000000,,2013-09-12 17:54:00,
2013-09-12 14:02:00,74.0,66.0,30.41,NW,306,6.0,17.0,75,-99.99,,,0.01,609.000000,,2013-09-12 18:02:00,
2013-09-12 14:42:00,72.0,70.0,30.40,WNW,290,2.0,16.0,92,0.01,,,0.02,181.000000,,2013-09-12 18:42:00,
2013-09-12 14:52:00,72.0,70.0,30.40,WNW,290,2.0,16.0,92,0.01,,,0.02,181.000000,,2013-09-12 18:52:00,
2013-09-12 15:02:00,72.0,70.0,30.40,WNW,290,2.0,16.0,92,0.01,,,0.02,181.000000,,2013-09-12 19:02:00,
2013-09-12 15:42:00,80.0,69.0,30.35,East,84,2.0,9.0,70,0.00,,,0.02,596.000000,,2013-09-12 19:42:00,
2013-09-12 15:52:00,80.0,69.0,30.35,East,84,2.0,9.0,70,0.00,,,0.02,596.000000,,2013-09-12 19:52:00,
2013-09-12 16:02:00,80.0,69.0,30.35,East,84,2.0,9.0,70,0.00,,,0.02,596.000000,,2013-09-12 20:02:00,
2013-09-12 16:42:00,84.0,72.0,30.31,West,281,4.0,13.0,67,0.00,,,0.02,634.000000,,2013-09-12 20:42:00,
2013-09-12 16:52:00,84.0,72.0,30.31,West,281,4.0,13.0,67,0.00,,,0.02,634.000000,,2013-09-12 20:52:00,
2013-09-12 17:02:00,84.0,72.0,30.31,West,281,4.0,13.0,67,0.00,,,0.02,634.000000,,2013-09-12 21:02:00,
2013-09-12 17:43:00,80.0,68.0,30.28,SE,134,2.0,10.0,67,0.00,,,0.02,468.000000,,2013-09-12 21:43:00,
2013-09-12 17:54:00,80.0,68.0,30.28,SE,134,2.0,10.0,67,0.00,,,0.02,468.000000,,2013-09-12 21:54:00,
2013-09-12 18:04:00,80.0,68.0,30.28,SE,134,2.0,10.0,67,0.00,,,0.02,468.000000,,2013-09-12 22:04:00,
2013-09-12 18:43:00,82.0,69.0,30.29,WNW,289,4.0,11.0,66,0.00,,,0.02,419.000000,,2013-09-12 22:43:00,
2013-09-12 18:54:00,82.0,69.0,30.29,WNW,289,4.0,11.0,66,0.00,,,0.02,419.000000,,2013-09-12 22:54:00,
2013-09-12 19:04:00,82.0,69.0,30.29,WNW,289,4.0,11.0,66,0.00,,,0.02,419.000000,,2013-09-12 23:04:00,
2013-09-12 19:43:00,76.0,68.0,30.28,ENE,72,1.0,8.0,76,0.00,,,0.02,168.000000,,2013-09-12 23:43:00,
2013-09-12 19:53:00,76.0,68.0,30.28,ENE,72,1.0,8.0,76,0.00,,,0.02,168.000000,,2013-09-12 23:53:00,
2013-09-12 20:01:00,76.0,68.0,30.28,ENE,72,1.0,8.0,76,0.00,,,0.02,168.000000,,2013-09-13 00:01:00,
2013-09-12 20:42:00,68.0,66.0,30.30,East,88,2.0,8.0,92,0.00,,,0.02,16.000000,,2013-09-13 00:42:00,
2013-09-12 20:52:00,68.0,66.0,30.30,East,88,2.0,8.0,92,0.00,,,0.02,16.000000,,2013-09-13 00:52:00,
2013-09-12 21:02:00,68.0,66.0,30.30,East,88,2.0,8.0,92,0.00,,,0.02,16.000000,,2013-09-13 01:02:00,
2013-09-12 21:42:00,69.0,68.0,30.32,West,269,1.0,3.0,95,0.00,,,0.02,0.000000,,2013-09-13 01:42:00,
2013-09-12 21:53:00,69.0,68.0,30.32,West,269,1.0,3.0,95,0.00,,,0.02,0.000000,,2013-09-13 01:53:00,
2013-09-12 22:02:00,69.0,68.0,30.32,West,269,1.0,3.0,95,0.00,,,0.02,0.000000,,2013-09-13 02:02:00,
2013-09-12 22:43:00,64.0,64.0,30.35,SSW,209,1.0,34.0,99,0.66,,,0.68,0.000000,,2013-09-13 02:43:00,
2013-09-12 22:53:00,64.0,64.0,30.35,SSW,209,1.0,34.0,99,0.66,,,0.68,0.000000,,2013-09-13 02:53:00,
2013-09-12 23:02:00,64.0,64.0,30.35,SSW,209,1.0,34.0,99,0.66,,,0.68,0.000000,,2013-09-13 03:02:00,
2013-09-12 23:45:00,65.0,65.0,30.32,ENE,69,3.0,7.0,100,0.13,,,0.81,0.000000,,2013-09-13 03:45:00,
2013-09-12 23:55:00,65.0,65.0,30.32,ENE,69,3.0,7.0,100,0.13,,,0.81,0.000000,,2013-09-13 03:55:00,